Powrót do katalogu

SL-8 R/B

AktywnyLEO
NORAD 6324·ROCKET BODY·🇷🇺 Russia

Wystrzelony Dec 25, 1972 z Plesetsk Cosmodrome

Loading…

Następne Przeloty (najbliższe 24 godziny)

TLE

ŚwieżeSource: Space-Track

Epoka: Sep 14, 2026, 14:17 UTC

1 06324U 72104B   26257.59529699  .00000157  00000-0  52344-4 0  9990
2 06324  74.0769 323.0322 0009645 308.5099  51.5194 14.45377188822648

Śledź SL-8 R/B w czasie rzeczywistym z AllMySat

Download on the App Store